Location: Unspecified
(35.7250°N, 0.0000°E)
Time: 05:40:01
(UTC+00:00)

Tiangong 2 - Visible Passes

Search period start: 21 May 2019 00:00
Search period end: 31 May 2019 00:00
Orbit: 379 x 387 km, 42.8° (Epoch: 20 May)

Date Brightness Start Highest point End Pass type
(mag) Time Alt. Az. Time Alt. Az. Time Alt. Az.
21 May 1.4 19:55:55 10° WSW 19:59:01 66° NNW 20:02:08 10° ENE visible
21 May 3.4 21:33:29 10° WNW 21:36:04 23° N 21:36:04 23° N visible
22 May 3.0 20:33:06 10° WNW 20:35:53 28° NNW 20:38:40 10° NE visible
22 May 4.3 22:10:38 10° NW 22:11:20 14° NW 22:11:20 14° NW visible
23 May 2.4 19:32:45 10° W 19:35:43 40° NNW 19:38:42 10° NE visible
23 May 3.4 21:10:25 10° NW 21:12:55 21° N 21:14:10 17° NNE visible
24 May 3.4 20:10:04 10° WNW 20:12:41 23° N 20:15:17 10° NE visible
24 May 3.6 21:47:18 10° NW 21:49:03 21° NNW 21:49:03 21° NNW visible
25 May 3.3 20:47:13 10° NW 20:49:44 22° N 20:51:41 13° NE visible
25 May 4.6 22:23:50 10° NW 22:23:51 10° NW 22:23:51 10° NW visible
26 May 3.4 19:46:58 10° NW 19:49:29 21° N 19:51:59 10° NE visible
26 May 2.7 21:23:52 10° NW 21:26:25 31° N 21:26:25 31° N visible
27 May 3.0 20:23:51 10° NW 20:26:30 25° N 20:28:57 11° ENE visible
27 May 4.0 22:00:22 10° WNW 22:01:07 16° WNW 22:01:07 16° WNW visible
28 May 1.7 21:00:21 10° NW 21:03:24 47° NNE 21:03:38 46° NE visible
29 May 2.5 20:00:22 10° NW 20:03:13 31° NNE 20:06:04 10° E visible
29 May 3.3 21:36:59 10° WNW 21:38:20 23° W 21:38:20 23° W visible
30 May 1.0 20:36:51 10° WNW 20:39:59 81° NNE 20:40:52 43° ESE visible
